Location: Baggettsville
(36.4767°N, 86.7303°W)
Time: 08:10:42
(UTC+00:00)

Cosmos 2369 - Pass Details

Date: 29 October 2020
Orbit: 841 x 854 km, 71.0° (Epoch: 05 December)

Event Time Altitude Azimuth Distance (km) Brightness Sun altitude
Rises 23:29:01 0° 182° (S) 3,405 7.0 -7.9°
Reaches altitude 10° 23:31:34 10° 175° (S) 2,473 6.2 -8.4°
Maximum altitude 23:36:54 43° 105° (ESE) 1,173 4.1 -9.4°
Drops below altitude 10° 23:42:16 10° 36° (NE) 2,481 5.7 -10.5°
Sets 23:44:49 0° 30° (NNE) 3,418 6.5 -11.0°
